Year,Month,Day,Hour,Minute,Value (Times are PST for temperature in C)
2010,12,07,00,00,7.30
2010,12,07,00,01,7.30
2010,12,07,00,02,7.30
2010,12,07,00,03,7.30
2010,12,07,00,04,7.30
2010,12,07,00,05,7.30
2010,12,07,00,06,7.40
2010,12,07,00,07,7.40
2010,12,07,00,08,7.40
2010,12,07,00,09,7.40
2010,12,07,00,10,7.40
2010,12,07,00,11,7.40
2010,12,07,00,12,7.40
2010,12,07,00,13,7.40
2010,12,07,00,14,7.50
2010,12,07,00,15,7.50
2010,12,07,00,16,7.50
2010,12,07,00,17,7.50
2010,12,07,00,18,7.50
2010,12,07,00,19,7.50
2010,12,07,00,20,7.50
2010,12,07,00,21,7.50
2010,12,07,00,22,7.50
2010,12,07,00,23,7.50
2010,12,07,00,24,7.50
2010,12,07,00,25,7.50
2010,12,07,00,26,7.50
2010,12,07,00,27,7.60
2010,12,07,00,28,7.60
2010,12,07,00,29,7.60
2010,12,07,00,30,7.60
2010,12,07,00,31,7.60
2010,12,07,00,32,7.60
2010,12,07,00,33,7.60
2010,12,07,00,34,7.60
2010,12,07,00,35,7.60
2010,12,07,00,36,7.60
2010,12,07,00,37,7.60
2010,12,07,00,38,7.60
2010,12,07,00,39,7.60
2010,12,07,00,40,7.60
2010,12,07,00,41,7.60
2010,12,07,00,42,7.60
2010,12,07,00,43,7.60
2010,12,07,00,44,7.60
2010,12,07,00,45,7.60
2010,12,07,00,46,7.60
2010,12,07,00,47,7.60
2010,12,07,00,48,7.60
2010,12,07,00,49,7.50
2010,12,07,00,50,7.50
2010,12,07,00,51,7.50
2010,12,07,00,52,7.50
2010,12,07,00,53,7.40
2010,12,07,00,54,7.40
2010,12,07,00,55,7.40
2010,12,07,00,56,7.40
2010,12,07,00,57,7.40
2010,12,07,00,58,7.30
2010,12,07,00,59,7.30
2010,12,07,01,00,7.30
2010,12,07,01,01,7.30
2010,12,07,01,02,7.20
2010,12,07,01,03,7.20
2010,12,07,01,04,7.20
2010,12,07,01,05,7.20
2010,12,07,01,06,7.20
2010,12,07,01,07,7.20
2010,12,07,01,08,7.10
2010,12,07,01,09,7.10
2010,12,07,01,10,7.10
2010,12,07,01,11,7.10
2010,12,07,01,12,7.10
2010,12,07,01,13,7.10
2010,12,07,01,14,7.00
2010,12,07,01,15,7.00
2010,12,07,01,16,7.00
2010,12,07,01,17,7.00
2010,12,07,01,18,7.00
2010,12,07,01,19,7.00
2010,12,07,01,20,7.00
2010,12,07,01,21,7.00
2010,12,07,01,22,7.10
2010,12,07,01,23,7.10
2010,12,07,01,24,7.10
2010,12,07,01,25,7.10
2010,12,07,01,26,7.10
2010,12,07,01,27,7.10
2010,12,07,01,28,7.10
2010,12,07,01,29,7.10
2010,12,07,01,30,7.10
2010,12,07,01,31,7.10
2010,12,07,01,32,7.10
2010,12,07,01,33,7.10
2010,12,07,01,34,7.10
2010,12,07,01,35,7.10
2010,12,07,01,36,7.10
2010,12,07,01,37,7.10
2010,12,07,01,38,7.20
2010,12,07,01,39,7.20
2010,12,07,01,40,7.20
2010,12,07,01,41,7.20
2010,12,07,01,42,7.20
2010,12,07,01,43,7.20
2010,12,07,01,44,7.20
2010,12,07,01,45,7.20
2010,12,07,01,46,7.20
2010,12,07,01,47,7.20
2010,12,07,01,48,7.20
2010,12,07,01,49,7.30
2010,12,07,01,50,7.30
2010,12,07,01,51,7.30
2010,12,07,01,52,7.30
2010,12,07,01,53,7.30
2010,12,07,01,54,7.30
2010,12,07,01,55,7.30
2010,12,07,01,56,7.30
2010,12,07,01,57,7.30
2010,12,07,01,58,7.20
2010,12,07,01,59,7.20
2010,12,07,02,00,7.30
2010,12,07,02,01,7.30
2010,12,07,02,02,7.30
2010,12,07,02,03,7.30
2010,12,07,02,04,7.30
2010,12,07,02,05,7.30
2010,12,07,02,06,7.30
2010,12,07,02,07,7.30
2010,12,07,02,08,7.30
2010,12,07,02,09,7.30
2010,12,07,02,10,7.30
2010,12,07,02,11,7.30
2010,12,07,02,12,7.30
2010,12,07,02,13,7.30
2010,12,07,02,14,7.30
2010,12,07,02,15,7.30
2010,12,07,02,16,7.30
2010,12,07,02,17,7.30
2010,12,07,02,18,7.30
2010,12,07,02,19,7.30
2010,12,07,02,20,7.30
2010,12,07,02,21,7.40
2010,12,07,02,22,7.30
2010,12,07,02,23,7.30
2010,12,07,02,24,7.40
2010,12,07,02,25,7.40
2010,12,07,02,26,7.30
2010,12,07,02,27,7.30
2010,12,07,02,28,7.30
2010,12,07,02,29,7.40
2010,12,07,02,30,7.40
2010,12,07,02,31,7.40
2010,12,07,02,32,7.40
2010,12,07,02,33,7.40
2010,12,07,02,34,7.40
2010,12,07,02,35,7.40
2010,12,07,02,36,7.40
2010,12,07,02,37,7.40
2010,12,07,02,38,7.40
2010,12,07,02,39,7.40
2010,12,07,02,40,7.40
2010,12,07,02,41,7.40
2010,12,07,02,42,7.40
2010,12,07,02,43,7.40
2010,12,07,02,44,7.40
2010,12,07,02,45,7.40
2010,12,07,02,46,7.40
2010,12,07,02,47,7.50
2010,12,07,02,48,7.50
2010,12,07,02,49,7.50
2010,12,07,02,50,7.60
2010,12,07,02,51,7.60
2010,12,07,02,52,7.60
2010,12,07,02,53,7.70
2010,12,07,02,54,7.70
2010,12,07,02,55,7.70
2010,12,07,02,56,7.80
2010,12,07,02,57,7.80
2010,12,07,02,58,7.90
2010,12,07,02,59,7.90
2010,12,07,03,00,8.00
2010,12,07,03,01,8.00
2010,12,07,03,02,8.10
2010,12,07,03,03,8.10
2010,12,07,03,04,8.10
2010,12,07,03,05,8.20
2010,12,07,03,06,8.20
2010,12,07,03,07,8.20
2010,12,07,03,08,8.30
2010,12,07,03,09,8.30
2010,12,07,03,10,8.30
2010,12,07,03,11,8.30
2010,12,07,03,12,8.30
2010,12,07,03,13,8.40
2010,12,07,03,14,8.40
2010,12,07,03,15,8.40
2010,12,07,03,16,8.40
2010,12,07,03,17,8.40
2010,12,07,03,18,8.40
2010,12,07,03,19,8.50
2010,12,07,03,20,8.50
2010,12,07,03,21,8.60
2010,12,07,03,22,8.60
2010,12,07,03,23,8.60
2010,12,07,03,24,8.60
2010,12,07,03,25,8.70
2010,12,07,03,26,8.70
2010,12,07,03,27,8.70
2010,12,07,03,28,8.70
2010,12,07,03,29,8.70
2010,12,07,03,30,8.70
2010,12,07,03,31,8.80
2010,12,07,03,32,8.80
2010,12,07,03,33,8.80
2010,12,07,03,34,8.80
2010,12,07,03,35,8.80
2010,12,07,03,36,8.80
2010,12,07,03,37,8.80
2010,12,07,03,38,8.80
2010,12,07,03,39,8.80
2010,12,07,03,40,8.80
2010,12,07,03,41,8.80
2010,12,07,03,42,8.80
2010,12,07,03,43,8.80
2010,12,07,03,44,8.80
2010,12,07,03,45,8.70
2010,12,07,03,46,8.70
2010,12,07,03,47,8.70
2010,12,07,03,48,8.70
2010,12,07,03,49,8.60
2010,12,07,03,50,8.60
2010,12,07,03,51,8.60
2010,12,07,03,52,8.60
2010,12,07,03,53,8.60
2010,12,07,03,54,8.60
2010,12,07,03,55,8.60
2010,12,07,03,56,8.60
2010,12,07,03,57,8.60
2010,12,07,03,58,8.60
2010,12,07,03,59,8.60
2010,12,07,04,00,8.60
2010,12,07,04,01,8.60
2010,12,07,04,02,8.60
2010,12,07,04,03,8.60
2010,12,07,04,04,8.60
2010,12,07,04,05,8.60
2010,12,07,04,06,8.60
2010,12,07,04,07,8.60
2010,12,07,04,08,8.60
2010,12,07,04,09,8.60
2010,12,07,04,10,8.60
2010,12,07,04,11,8.60
2010,12,07,04,12,8.60
2010,12,07,04,13,8.60
2010,12,07,04,14,8.60
2010,12,07,04,15,8.60
2010,12,07,04,16,8.60
2010,12,07,04,17,8.60
2010,12,07,04,18,8.60
2010,12,07,04,19,8.60
2010,12,07,04,20,8.60
2010,12,07,04,21,8.60
2010,12,07,04,22,8.60
2010,12,07,04,23,8.60
2010,12,07,04,24,8.60
2010,12,07,04,25,8.60
2010,12,07,04,26,8.60
2010,12,07,04,27,8.60
2010,12,07,04,28,8.60
2010,12,07,04,29,8.50
2010,12,07,04,30,8.60
2010,12,07,04,31,8.50
2010,12,07,04,32,8.60
2010,12,07,04,33,8.50
2010,12,07,04,34,8.60
2010,12,07,04,35,8.50
2010,12,07,04,36,8.60
2010,12,07,04,37,8.60
2010,12,07,04,38,8.60
2010,12,07,04,39,8.60
2010,12,07,04,40,8.60
2010,12,07,04,41,8.60
2010,12,07,04,42,8.60
2010,12,07,04,43,8.50
2010,12,07,04,44,8.50
2010,12,07,04,45,8.50
2010,12,07,04,46,8.50
2010,12,07,04,47,8.50
2010,12,07,04,48,8.50
2010,12,07,04,49,8.50
2010,12,07,04,50,8.50
2010,12,07,04,51,8.50
2010,12,07,04,52,8.60
2010,12,07,04,53,8.60
2010,12,07,04,54,8.60
2010,12,07,04,55,8.60
2010,12,07,04,56,8.60
2010,12,07,04,57,8.60
2010,12,07,04,58,8.60
2010,12,07,04,59,8.60
2010,12,07,05,00,8.60
2010,12,07,05,01,8.60
2010,12,07,05,02,8.60
2010,12,07,05,03,8.60
2010,12,07,05,04,8.60
2010,12,07,05,05,8.60
2010,12,07,05,06,8.60
2010,12,07,05,07,8.60
2010,12,07,05,08,8.60
2010,12,07,05,09,8.60
2010,12,07,05,10,8.60
2010,12,07,05,11,8.60
2010,12,07,05,12,8.60
2010,12,07,05,13,8.60
2010,12,07,05,14,8.60
2010,12,07,05,15,8.60
2010,12,07,05,16,8.60
2010,12,07,05,17,8.60
2010,12,07,05,18,8.60
2010,12,07,05,19,8.60
2010,12,07,05,20,8.60
2010,12,07,05,21,8.60
2010,12,07,05,22,8.60
2010,12,07,05,23,8.60
2010,12,07,05,24,8.60
2010,12,07,05,25,8.70
2010,12,07,05,26,8.70
2010,12,07,05,27,8.70
2010,12,07,05,28,8.70
2010,12,07,05,29,8.70
2010,12,07,05,30,8.70
2010,12,07,05,31,8.70
2010,12,07,05,32,8.70
2010,12,07,05,33,8.60
2010,12,07,05,34,8.60
2010,12,07,05,35,8.60
2010,12,07,05,36,8.60
2010,12,07,05,37,8.60
2010,12,07,05,38,8.50
2010,12,07,05,39,8.50
2010,12,07,05,40,8.50
2010,12,07,05,41,8.50
2010,12,07,05,42,8.50
2010,12,07,05,43,8.50
2010,12,07,05,44,8.50
2010,12,07,05,45,8.50
2010,12,07,05,46,8.60
2010,12,07,05,47,8.60
2010,12,07,05,48,8.60
2010,12,07,05,49,8.60
2010,12,07,05,50,8.60
2010,12,07,05,51,8.60
2010,12,07,05,52,8.70
2010,12,07,05,53,8.70
2010,12,07,05,54,8.70
2010,12,07,05,55,8.70
2010,12,07,05,56,8.70
2010,12,07,05,57,8.80
2010,12,07,05,58,8.80
2010,12,07,05,59,8.80
2010,12,07,06,00,8.80
2010,12,07,06,01,8.80
2010,12,07,06,02,8.80
2010,12,07,06,03,8.90
2010,12,07,06,04,8.90
2010,12,07,06,05,8.90
2010,12,07,06,06,8.90
2010,12,07,06,07,8.90
2010,12,07,06,08,8.90
2010,12,07,06,09,8.90
2010,12,07,06,10,8.90
2010,12,07,06,11,8.90
2010,12,07,06,12,8.90
2010,12,07,06,13,9.00
2010,12,07,06,14,9.00
2010,12,07,06,15,9.00
2010,12,07,06,16,9.00
2010,12,07,06,17,9.10
2010,12,07,06,18,9.10
2010,12,07,06,19,9.10
2010,12,07,06,20,9.10
2010,12,07,06,21,9.10
2010,12,07,06,22,9.10
2010,12,07,06,23,9.10
2010,12,07,06,24,9.10
2010,12,07,06,25,9.10
2010,12,07,06,26,9.10
2010,12,07,06,27,9.10
2010,12,07,06,28,9.10
2010,12,07,06,29,9.10
2010,12,07,06,30,9.10
2010,12,07,06,31,9.10
2010,12,07,06,32,9.10
2010,12,07,06,33,9.10
2010,12,07,06,34,9.10
2010,12,07,06,35,9.10
2010,12,07,06,36,9.10
2010,12,07,06,37,9.10
2010,12,07,06,38,9.10
2010,12,07,06,39,9.10
2010,12,07,06,40,9.10
2010,12,07,06,41,9.10
2010,12,07,06,42,9.10
2010,12,07,06,43,9.10
2010,12,07,06,44,9.10
2010,12,07,06,45,9.10
2010,12,07,06,46,9.10
2010,12,07,06,47,9.10
2010,12,07,06,48,9.10
2010,12,07,06,49,9.10
2010,12,07,06,50,9.10
2010,12,07,06,51,9.10
2010,12,07,06,52,9.10
2010,12,07,06,53,9.10
2010,12,07,06,54,9.10
2010,12,07,06,55,9.10
2010,12,07,06,56,9.10
2010,12,07,06,57,9.10
2010,12,07,06,58,9.10
2010,12,07,06,59,9.10
2010,12,07,07,00,9.10
2010,12,07,07,01,9.10
2010,12,07,07,02,9.10
2010,12,07,07,03,9.10
2010,12,07,07,04,9.10
2010,12,07,07,05,9.10
2010,12,07,07,06,9.10
2010,12,07,07,07,9.10
2010,12,07,07,08,9.00
2010,12,07,07,09,9.00
2010,12,07,07,10,9.10
2010,12,07,07,11,9.10
2010,12,07,07,12,9.00
2010,12,07,07,13,9.00
2010,12,07,07,14,9.10
2010,12,07,07,15,9.10
2010,12,07,07,16,9.10
2010,12,07,07,17,9.00
2010,12,07,07,18,9.10
2010,12,07,07,19,9.10
2010,12,07,07,20,9.10
2010,12,07,07,21,9.10
2010,12,07,07,22,9.10
2010,12,07,07,23,9.10
2010,12,07,07,24,9.10
2010,12,07,07,25,9.10
2010,12,07,07,26,9.10
2010,12,07,07,27,9.10
2010,12,07,07,28,9.10
2010,12,07,07,29,9.10
2010,12,07,07,30,9.10
2010,12,07,07,31,9.00
2010,12,07,07,32,9.00
2010,12,07,07,33,9.00
2010,12,07,07,34,9.00
2010,12,07,07,35,9.00
2010,12,07,07,36,9.00
2010,12,07,07,37,9.00
2010,12,07,07,38,9.00
2010,12,07,07,39,9.00
2010,12,07,07,40,9.00
2010,12,07,07,41,9.00
2010,12,07,07,42,9.00
2010,12,07,07,43,9.00
2010,12,07,07,44,9.00
2010,12,07,07,45,9.00
2010,12,07,07,46,9.00
2010,12,07,07,47,9.00
2010,12,07,07,48,9.00
2010,12,07,07,49,9.00
2010,12,07,07,50,9.00
2010,12,07,07,51,9.00
2010,12,07,07,52,9.00
2010,12,07,07,53,8.90
2010,12,07,07,54,8.90
2010,12,07,07,55,8.90
2010,12,07,07,56,8.90
2010,12,07,07,57,8.90
2010,12,07,07,58,8.90
2010,12,07,07,59,8.80
2010,12,07,08,00,8.80
2010,12,07,08,01,8.80
2010,12,07,08,02,8.80
2010,12,07,08,03,8.80
2010,12,07,08,04,8.80
2010,12,07,08,05,8.80
2010,12,07,08,06,8.80
2010,12,07,08,07,8.80
2010,12,07,08,08,8.80
2010,12,07,08,09,8.80
2010,12,07,08,10,8.80
2010,12,07,08,11,8.80
2010,12,07,08,12,8.80
2010,12,07,08,13,8.80
2010,12,07,08,14,8.80
2010,12,07,08,15,8.80
2010,12,07,08,16,8.80
2010,12,07,08,17,8.80
2010,12,07,08,18,8.80
2010,12,07,08,19,8.80
2010,12,07,08,20,8.80
2010,12,07,08,21,8.80
2010,12,07,08,22,8.80
2010,12,07,08,23,8.80
2010,12,07,08,24,8.80
2010,12,07,08,25,8.80
2010,12,07,08,26,8.80
2010,12,07,08,27,8.80
2010,12,07,08,28,8.80
2010,12,07,08,29,8.80
2010,12,07,08,30,8.80
2010,12,07,08,31,8.80
2010,12,07,08,32,8.80
2010,12,07,08,33,8.80
2010,12,07,08,34,8.80
2010,12,07,08,35,8.80
2010,12,07,08,36,8.80
2010,12,07,08,37,8.80
2010,12,07,08,38,8.80
2010,12,07,08,39,8.80
2010,12,07,08,40,8.80
2010,12,07,08,41,8.80
2010,12,07,08,42,8.80
2010,12,07,08,43,8.80
2010,12,07,08,44,8.80
2010,12,07,08,45,8.80
2010,12,07,08,46,8.80
2010,12,07,08,47,8.80
2010,12,07,08,48,8.80
2010,12,07,08,49,8.80
2010,12,07,08,50,8.80
2010,12,07,08,51,8.80
2010,12,07,08,52,8.80
2010,12,07,08,53,8.80
2010,12,07,08,54,8.80
2010,12,07,08,55,8.80
2010,12,07,08,56,8.80
2010,12,07,08,57,8.80
2010,12,07,08,58,8.80
2010,12,07,08,59,8.80
2010,12,07,09,00,8.80
2010,12,07,09,01,8.80
2010,12,07,09,02,8.80
2010,12,07,09,03,8.80
2010,12,07,09,04,8.80
2010,12,07,09,05,8.90
2010,12,07,09,06,8.90
2010,12,07,09,07,8.90
2010,12,07,09,08,8.90
2010,12,07,09,09,8.90
2010,12,07,09,10,8.90
2010,12,07,09,11,8.90
2010,12,07,09,12,8.90
2010,12,07,09,13,8.90
2010,12,07,09,14,9.00
2010,12,07,09,15,9.00
2010,12,07,09,16,9.00
2010,12,07,09,17,9.00
2010,12,07,09,18,9.00
2010,12,07,09,19,9.10
2010,12,07,09,20,9.10
2010,12,07,09,21,9.10
2010,12,07,09,22,9.10
2010,12,07,09,23,9.10
2010,12,07,09,24,9.10
2010,12,07,09,25,9.10
2010,12,07,09,26,9.20
2010,12,07,09,27,9.20
2010,12,07,09,28,9.20
2010,12,07,09,29,9.20
2010,12,07,09,30,9.20
2010,12,07,09,31,9.20
2010,12,07,09,32,9.20
2010,12,07,09,33,9.20
2010,12,07,09,34,9.20
2010,12,07,09,35,9.30
2010,12,07,09,36,9.30
2010,12,07,09,37,9.30
2010,12,07,09,38,9.30
2010,12,07,09,39,9.30
2010,12,07,09,40,9.30
2010,12,07,09,41,9.30
2010,12,07,09,42,9.40
2010,12,07,09,43,9.40
2010,12,07,09,44,9.40
2010,12,07,09,45,9.40
2010,12,07,09,46,9.40
2010,12,07,09,47,9.40
2010,12,07,09,48,9.40
2010,12,07,09,49,9.40
2010,12,07,09,50,9.40
2010,12,07,09,51,9.40
2010,12,07,09,52,9.40
2010,12,07,09,53,9.40
2010,12,07,09,54,9.40
2010,12,07,09,55,9.40
2010,12,07,09,56,9.40
2010,12,07,09,57,9.40
2010,12,07,09,58,9.40
2010,12,07,09,59,9.30
2010,12,07,10,00,9.30
2010,12,07,10,01,9.30
2010,12,07,10,02,9.30
2010,12,07,10,03,9.30
2010,12,07,10,04,9.30
2010,12,07,10,05,9.40
2010,12,07,10,06,9.40
2010,12,07,10,07,9.40
2010,12,07,10,08,9.40
2010,12,07,10,09,9.40
2010,12,07,10,10,9.40
2010,12,07,10,11,9.40
2010,12,07,10,12,9.40
2010,12,07,10,13,9.50
2010,12,07,10,14,9.50
2010,12,07,10,15,9.50
2010,12,07,10,16,9.60
2010,12,07,10,17,9.60
2010,12,07,10,18,9.60
2010,12,07,10,19,9.60
2010,12,07,10,20,9.60
2010,12,07,10,21,9.60
2010,12,07,10,22,9.70
2010,12,07,10,23,9.70
2010,12,07,10,24,9.70
2010,12,07,10,25,9.80
2010,12,07,10,26,9.80
2010,12,07,10,27,9.80
2010,12,07,10,28,9.90
2010,12,07,10,29,9.90
2010,12,07,10,30,9.90
2010,12,07,10,31,10.00
2010,12,07,10,32,10.00
2010,12,07,10,33,10.10
2010,12,07,10,34,10.10
2010,12,07,10,35,10.10
2010,12,07,10,37,10.10
2010,12,07,10,38,10.20
2010,12,07,10,39,10.20
2010,12,07,10,40,10.20
2010,12,07,10,41,10.20
2010,12,07,10,42,10.20
2010,12,07,10,43,10.30
2010,12,07,10,44,10.30
2010,12,07,10,45,10.30
2010,12,07,10,46,10.30
2010,12,07,10,47,10.30
2010,12,07,10,48,10.30
2010,12,07,10,49,10.30
2010,12,07,10,50,10.30
2010,12,07,10,51,10.30
2010,12,07,10,52,10.20
2010,12,07,10,53,10.20
2010,12,07,10,54,10.20
2010,12,07,10,55,10.20
2010,12,07,10,56,10.20
2010,12,07,10,57,10.20
2010,12,07,10,58,10.20
2010,12,07,10,59,10.10
2010,12,07,11,00,10.10
2010,12,07,11,01,10.10
2010,12,07,11,02,10.10
2010,12,07,11,03,10.10
2010,12,07,11,04,10.10
2010,12,07,11,05,10.10
2010,12,07,11,06,10.10
2010,12,07,11,07,10.10
2010,12,07,11,08,10.10
2010,12,07,11,09,10.10
2010,12,07,11,10,10.10
2010,12,07,11,11,10.10
2010,12,07,11,12,10.10
2010,12,07,11,13,10.10
2010,12,07,11,14,10.10
2010,12,07,11,15,10.10
2010,12,07,11,16,10.10
2010,12,07,11,17,10.10
2010,12,07,11,18,10.10
2010,12,07,11,19,10.10
2010,12,07,11,20,10.10
2010,12,07,11,21,10.10
2010,12,07,11,22,10.10
2010,12,07,11,23,10.10
2010,12,07,11,24,10.10
2010,12,07,11,25,10.10
2010,12,07,11,26,10.10
2010,12,07,11,27,10.10
2010,12,07,11,28,10.10
2010,12,07,11,29,10.10
2010,12,07,11,30,10.10
2010,12,07,11,31,10.10
2010,12,07,11,32,10.10
2010,12,07,11,33,10.10
2010,12,07,11,34,10.20
2010,12,07,11,35,10.20
2010,12,07,11,36,10.20
2010,12,07,11,37,10.20
2010,12,07,11,38,10.20
2010,12,07,11,39,10.20
2010,12,07,11,40,10.20
2010,12,07,11,41,10.20
2010,12,07,11,42,10.20
2010,12,07,11,43,10.20
2010,12,07,11,44,10.20
2010,12,07,11,45,10.20
2010,12,07,11,46,10.20
2010,12,07,11,47,10.30
2010,12,07,11,48,10.30
2010,12,07,11,49,10.30
2010,12,07,11,50,10.30
2010,12,07,11,51,10.30
2010,12,07,11,52,10.30
2010,12,07,11,53,10.40
2010,12,07,11,54,10.40
2010,12,07,11,55,10.40
2010,12,07,11,56,10.40
2010,12,07,11,57,10.50
2010,12,07,11,58,10.50
2010,12,07,11,59,10.60
2010,12,07,12,00,10.60
2010,12,07,12,01,10.60
2010,12,07,12,02,10.70
2010,12,07,12,03,10.70
2010,12,07,12,04,10.70
2010,12,07,12,05,10.70
2010,12,07,12,06,10.80
2010,12,07,12,07,10.80
2010,12,07,12,08,10.80
2010,12,07,12,09,10.80
2010,12,07,12,10,10.80
2010,12,07,12,11,10.80
2010,12,07,12,12,10.80
2010,12,07,12,13,10.80
2010,12,07,12,14,10.80
2010,12,07,12,15,10.80
2010,12,07,12,16,10.80
2010,12,07,12,17,10.80
2010,12,07,12,18,10.80
2010,12,07,12,19,10.80
2010,12,07,12,20,10.80
2010,12,07,12,21,10.80
2010,12,07,12,22,10.80
2010,12,07,12,23,10.80
2010,12,07,12,24,10.80
2010,12,07,12,25,10.80
2010,12,07,12,26,10.70
2010,12,07,12,27,10.70
2010,12,07,12,28,10.70
2010,12,07,12,29,10.70
2010,12,07,12,30,10.70
2010,12,07,12,31,10.70
2010,12,07,12,32,10.70
2010,12,07,12,33,10.70
2010,12,07,12,34,10.70
2010,12,07,12,35,10.70
2010,12,07,12,36,10.70
2010,12,07,12,37,10.80
2010,12,07,12,38,10.80
2010,12,07,12,39,10.80
2010,12,07,12,40,10.80
2010,12,07,12,41,10.80
2010,12,07,12,42,10.80
2010,12,07,12,43,10.70
2010,12,07,12,44,10.70
2010,12,07,12,45,10.70
2010,12,07,12,46,10.70
2010,12,07,12,47,10.70
2010,12,07,12,48,10.60
2010,12,07,12,49,10.60
2010,12,07,12,50,10.60
2010,12,07,12,51,10.60
2010,12,07,12,52,10.60
2010,12,07,12,53,10.60
2010,12,07,12,54,10.60
2010,12,07,12,55,10.60
2010,12,07,12,56,10.60
2010,12,07,12,57,10.60
2010,12,07,12,58,10.60
2010,12,07,12,59,10.60
2010,12,07,13,00,10.60
2010,12,07,13,01,10.60
2010,12,07,13,02,10.60
2010,12,07,13,03,10.60
2010,12,07,13,04,10.60
2010,12,07,13,05,10.60
2010,12,07,13,06,10.60
2010,12,07,13,07,10.60
2010,12,07,13,08,10.60
2010,12,07,13,09,10.60
2010,12,07,13,10,10.70
2010,12,07,13,11,10.70
2010,12,07,13,12,10.70
2010,12,07,13,13,10.70
2010,12,07,13,14,10.70
2010,12,07,13,15,10.70
2010,12,07,13,16,10.70
2010,12,07,13,17,10.70
2010,12,07,13,18,10.80
2010,12,07,13,19,10.80
2010,12,07,13,20,10.80
2010,12,07,13,21,10.80
2010,12,07,13,22,10.90
2010,12,07,13,23,10.90
2010,12,07,13,24,10.90
2010,12,07,13,25,10.90
2010,12,07,13,26,10.90
2010,12,07,13,27,10.90
2010,12,07,13,28,10.90
2010,12,07,13,29,10.90
2010,12,07,13,30,10.90
2010,12,07,13,31,11.00
2010,12,07,13,32,11.00
2010,12,07,13,33,11.00
2010,12,07,13,34,11.00
2010,12,07,13,35,11.00
2010,12,07,13,36,11.00
2010,12,07,13,37,11.00
2010,12,07,13,38,11.00
2010,12,07,13,39,10.90
2010,12,07,13,40,10.90
2010,12,07,13,41,10.90
2010,12,07,13,42,10.90
2010,12,07,13,43,10.90
2010,12,07,13,44,10.80
2010,12,07,13,45,10.80
2010,12,07,13,46,10.80
2010,12,07,13,47,10.80
2010,12,07,13,48,10.80
2010,12,07,13,49,10.80
2010,12,07,13,50,10.80
